Weather History for Bennington, VT

Change the Weather History Date:

Saturday, August 30, 2014

  Actual Average Record
Temperature  
Mean Temperature 66 °F 64 °F  
Max Temperature 78 °F 76 °F 87 °F (2007)
Min Temperature 54 °F 53 °F 43 °F (2012)
Degree Days  
Heating Degree Days 0 3  
Month to date heating degree days 42 41  
Since 1 June heating degree days 100 162  
Since 1 July heating degree days 53 65  
Cooling Degree Days 1 2  
Month to date cooling degree days 45 93  
Year to date cooling degree days 247 288  
Since 1 June cooling degree days 231 274  
Growing Degree Days 16 (Base 50)    
Moisture  
Dew Point 56 °F    
Average Humidity 70    
Maximum Humidity 86    
Minimum Humidity 54    
Precipitation  
Precipitation 0.00 in 0.12 in 1.08 in (2004)
Month to date precipitation 1.84 3.89  
Year to date precipitation 25.95 27.43  
Sea Level Pressure  
Sea Level Pressure 30.19 in    
Wind  
Wind Speed 7 mph (SSE)    
Max Wind Speed 15 mph    
Max Gust Speed 20 mph    
Visibility 10 miles    
Events      
T = Trace of Precipitation, MM = Missing Value Source: NWS Daily Summary

Daily Weather History Graph

Daily Weather History Graph

Search for Another Location

Airport:

Trip Planner

Search our weather history database for the weather conditions in past years. The results will help you decide how hot, cold, wet, or windy it might be!

Date:

Astronomy

Aug. 30, 2014 Rise Set
Actual Time 6:15 AM EDT 7:31 PM EDT
Civil Twilight 5:46 AM EDT 8:00 PM EDT
Nautical Twilight 5:10 AM EDT 8:35 PM EDT
Astronomical Twilight 4:33 AM EDT 9:12 PM EDT
Moon 11:08 AM EDT (8/30) 9:55 PM EDT (8/30)
Length of Visible Light 14h 14m
Length of Day
13h 15m
Waxing Crescent, 23% of the Moon is Illuminated
Aug 30
Waxing Crescent
Sep 2
First Quarter
Sep 8
Full
Sep 15
Last Quarter
Sep 24
New

Hourly Weather History & Observations

Time (EDT) Temp. Dew Point Humidity Pressure Visibility Wind Dir Wind Speed Gust Speed Precip Events Conditions
12:54 AM 57.9 °F 52.0 °F 81% 30.24 in 10.0 mi Calm Calm - N/A   Clear
1:54 AM 55.9 °F 52.0 °F 87% 30.25 in 10.0 mi Variable 3.5 mph - N/A   Clear
2:54 AM 57.0 °F 52.0 °F 83% 30.24 in 10.0 mi SE 6.9 mph - N/A   Clear
3:54 AM 55.9 °F 52.0 °F 87% 30.25 in 10.0 mi SE 6.9 mph - N/A   Clear
4:54 AM 57.9 °F 51.1 °F 78% 30.25 in 10.0 mi ESE 5.8 mph - N/A   Clear
5:54 AM 57.9 °F 51.1 °F 78% 30.26 in 10.0 mi Calm Calm - N/A   Clear
6:54 AM 57.9 °F 51.1 °F 78% 30.26 in 10.0 mi East 5.8 mph - N/A   Clear
7:54 AM 62.1 °F 52.0 °F 70% 30.25 in 10.0 mi Calm Calm - N/A   Clear
8:54 AM 64.9 °F 55.0 °F 70% 30.25 in 10.0 mi Variable 5.8 mph - N/A   Clear
9:54 AM 68.0 °F 55.0 °F 63% 30.25 in 10.0 mi South 9.2 mph - N/A   Clear
10:54 AM 70.0 °F 57.0 °F 63% 30.23 in 10.0 mi South 8.1 mph - N/A   Clear
11:54 AM 73.0 °F 57.0 °F 57% 30.21 in 10.0 mi South 10.4 mph - N/A   Clear
12:54 PM 73.9 °F 57.0 °F 55% 30.19 in 10.0 mi SSE 15.0 mph 20.7 mph N/A   Clear
1:54 PM 75.9 °F 57.9 °F 54% 30.18 in 10.0 mi SSE 11.5 mph - N/A   Clear
2:54 PM 77.0 °F 59.0 °F 54% 30.15 in 10.0 mi South 9.2 mph - N/A   Scattered Clouds
3:54 PM 78.1 °F 60.1 °F 54% 30.13 in 10.0 mi South 10.4 mph - N/A   Scattered Clouds
4:54 PM 75.9 °F 59.0 °F 56% 30.12 in 10.0 mi South 6.9 mph - N/A   Partly Cloudy
5:54 PM 75.0 °F 60.1 °F 60% 30.12 in 10.0 mi South 11.5 mph - N/A   Clear
6:54 PM 72.0 °F 59.0 °F 64% 30.11 in 10.0 mi South 8.1 mph - N/A   Clear
7:54 PM 68.0 °F 59.0 °F 73% 30.11 in 10.0 mi Variable 3.5 mph - N/A   Clear
8:54 PM 68.0 °F 57.9 °F 70% 30.11 in 10.0 mi Variable 5.8 mph - N/A   Clear
9:54 PM 69.1 °F 59.0 °F 70% 30.12 in 10.0 mi South 6.9 mph - N/A   Clear
10:54 PM 66.9 °F 59.0 °F 76% 30.11 in 10.0 mi Variable 5.8 mph - N/A   Clear
11:54 PM 64.9 °F 59.0 °F 81% 30.11 in 10.0 mi Calm Calm - N/A   Partly Cloudy